Temp
59 58 56 56 55 55 55 54 54 54 54 53 51 50 50 50 51 50 50 50 50 49 49 49 50 50 51 50 50 51 50 49 49 48 48 47 46 46 45 44 44 44
57 57 57 56 56 56 56 56 55 55 53 52 50 49 50 49 49 49 49 49 49 48 48 49 49 49 49 49 49 49 49 49 48 49 47 46 45 45 44 44 43 43
56 56 56 55 54 54 55 56 56 55 53 50 50 49 50 50 48 48 48 48 47 47 47 47 48 48 48 48 49 49 48 47 46 47 47 45 45 45 44 44 43 43
55 55 55 55 55 55 56 56 55 53 51 50 49 50 50 50 48 47 47 49 46 46 46 47 46 47 47 48 48 48 47 47 47 47 46 45 45 45 44 44 44 43
54 55 55 55 56 57 57 56 54 51 50 49 49 49 49 47 46 46 46 46 46 45 46 46 46 46 46 46 47 47 47 46 46 46 45 44 44 45 44 44 42 42
54 55 56 57 57 56 56 55 53 51 49 48 47 48 46 46 46 45 45 45 44 45 45 45 45 45 45 46 46 46 46 45 45 45 45 43 43 44 45 43 42 41
53 54 55 56 56 56 55 53 52 51 48 48 48 46 46 45 45 44 44 44 44 45 44 43 44 44 44 45 46 45 45 45 45 45 44 43 44 42 42 42 42 41
52 54 55 55 55 54 53 52 50 49 48 47 46 45 46 45 44 43 43 43 43 42 42 42 43 42 42 44 45 45 44 46 45 44 43 42 42 41 41 43 40 39
53 54 55 54 53 52 51 50 49 48 48 46 45 44 45 44 43 42 42 42 42 41 41 41 41 41 41 42 43 44 43 43 44 44 43 42 42 41 41 40 40 40
52 52 52 52 51 50 49 48 48 47 47 46 45 44 44 43 42 42 42 41 41 40 40 40 41 41 41 41 41 42 43 43 42 43 42 42 42 41 40 40 39 38
51 51 51 50 49 48 48 48 47 47 47 45 44 43 43 43 43 41 40 40 40 40 39 39 39 40 41 40 41 41 42 42 41 41 41 41 42 41 45 40 40 39
51 50 49 49 49 48 48 48 47 46 45 45 45 43 42 41 41 41 41 39 39 39 39 39 38 38 39 39 39 40 41 41 41 42 42 41 41 41 42 40 40 39
50 50 49 50 49 47 47 47 46 46 45 44 44 43 42 41 40 40 40 39 39 39 39 38 38 38 37 37 38 39 40 40 40 41 42 41 41 41 41 40 39 39
51 51 51 49 48 48 48 47 46 45 45 44 44 42 41 41 40 40 40 40 39 39 39 39 38 38 37 37 37 37 39 39 40 41 42 42 42 42 41 40 39 39
49 51 50 49 48 48 47 46 46 45 44 44 43 43 42 40 40 40 39 39 38 38 38 39 39 39 39 38 37 38 37 39 38 40 42 41 41 41 40 40 40 39
50 51 50 49 48 47 46 46 45 45 44 43 42 41 41 41 39 39 39 38 38 38 38 39 39 40 43 43 45 39 38 40 41 39 40 40 42 40 40 40 40 38
51 50 50 49 48 47 46 46 45 44 43 42 41 41 40 41 39 38 37 37 38 38 38 38 39 41 42 40 41 44 41 40 41 40 39 38 40 40 40 41 40 39
50 50 49 48 48 47 46 46 45 43 42 41 40 40 40 39 38 37 37 36 37 37 37 38 38 42 40 41 42 42 44 41 39 40 40 38 38 38 39 40 39 38
50 50 49 48 48 47 46 45 44 43 42 41 40 40 39 38 37 37 36 35 37 37 37 37 36 42 40 41 41 41 41 41 39 38 39 38 37 38 38 39 39 40
50 50 49 48 48 47 46 45 43 42 41 41 41 39 38 37 36 36 36 36 36 37 36 36 37 41 40 41 41 40 40 41 37 38 37 38 38 37 39 39 38 37
50 50 49 48 47 47 46 45 43 41 41 41 40 39 38 38 37 36 36 37 35 35 37 36 39 41 39 40 40 40 40 40 35 38 37 36 37 37 37 37 36 37
50 50 49 47 47 47 46 45 43 42 41 41 40 38 37 37 36 37 36 35 35 34 36 35 37 40 39 39 40 39 41 39 35 35 35 35 36 36 37 37 37 37
50 49 48 48 47 46 46 45 43 41 40 41 39 38 38 37 37 36 36 35 35 35 35 35 38 41 39 39 39 39 38 34 34 35 34 34 34 35 35 36 36 37
50 50 48 48 47 46 46 45 43 42 41 42 40 38 38 38 38 37 35 35 36 34 35 37 38 42 41 40 39 40 39 34 35 34 33 34 34 35 36 35 36 47
50 50 49 48 48 47 46 44 43 42 41 41 40 40 40 39 40 37 35 36 36 36 46 39 37 42 42 39 40 40 38 32 34 32 34 32 33 36 36 37 37 40
50 49 49 49 48 46 45 44 43 42 40 40 40 40 40 38 39 39 37 37 37 38 42 39 38 38 39 40 40 40 41 34 34 34 35 34 32 37 38 37 36 37
MSLP
1020.44 1020.72 1021.08 1021.48 1021.80 1022.08 1022.40 1022.68 1022.92 1023.04 1023.16 1023.28 1023.40 1023.60 1023.72 1023.84 1023.80 1023.76 1023.80 1023.80 1023.80 1023.84 1023.88 1023.92 1023.96 1024.00 1024.08 1024.16 1024.24 1024.36 1024.56 1024.76 1024.96 1025.08 1025.20 1025.32 1025.56 1025.68 1025.88 1026.04 1026.12 1026.20
1020.68 1020.88 1021.20 1021.52 1021.92 1022.20 1022.48 1022.64 1022.84 1022.92 1023.20 1023.40 1023.64 1023.80 1023.96 1023.96 1024.04 1024.00 1024.00 1024.04 1024.08 1024.16 1024.20 1024.20 1024.24 1024.28 1024.28 1024.36 1024.44 1024.60 1024.84 1024.96 1025.20 1025.32 1025.48 1025.64 1025.88 1025.92 1026.12 1026.24 1026.32 1026.40
1020.80 1021.08 1021.32 1021.64 1022.00 1022.32 1022.52 1022.72 1022.84 1023.04 1023.32 1023.68 1023.84 1023.96 1024.08 1024.12 1024.20 1024.20 1024.24 1024.28 1024.36 1024.44 1024.48 1024.48 1024.48 1024.48 1024.52 1024.56 1024.68 1024.84 1025.08 1025.28 1025.56 1025.68 1025.76 1025.96 1026.08 1026.20 1026.36 1026.40 1026.44 1026.44
1021.00 1021.16 1021.48 1021.76 1022.04 1022.36 1022.60 1022.80 1023.12 1023.32 1023.60 1023.80 1024.00 1024.12 1024.16 1024.32 1024.36 1024.40 1024.48 1024.52 1024.60 1024.68 1024.76 1024.72 1024.76 1024.76 1024.76 1024.84 1024.96 1025.20 1025.40 1025.60 1025.80 1025.88 1026.04 1026.20 1026.32 1026.36 1026.48 1026.48 1026.56 1026.60
1021.08 1021.40 1021.64 1021.88 1022.12 1022.36 1022.60 1022.84 1023.24 1023.52 1023.76 1024.04 1024.16 1024.24 1024.32 1024.44 1024.52 1024.60 1024.68 1024.80 1024.80 1024.88 1024.92 1025.00 1025.00 1025.04 1025.04 1025.16 1025.24 1025.48 1025.68 1025.92 1026.00 1026.04 1026.24 1026.44 1026.52 1026.48 1026.56 1026.56 1026.68 1026.80
1021.28 1021.44 1021.68 1021.92 1022.16 1022.40 1022.68 1023.04 1023.36 1023.64 1024.00 1024.20 1024.36 1024.44 1024.56 1024.64 1024.72 1024.84 1024.92 1024.96 1025.04 1025.08 1025.12 1025.20 1025.24 1025.32 1025.36 1025.44 1025.52 1025.72 1025.88 1026.08 1026.20 1026.24 1026.36 1026.52 1026.60 1026.64 1026.68 1026.76 1026.80 1026.92
1021.48 1021.68 1021.88 1022.08 1022.32 1022.52 1022.84 1023.28 1023.52 1023.84 1024.12 1024.36 1024.48 1024.64 1024.68 1024.80 1024.92 1025.08 1025.16 1025.20 1025.24 1025.28 1025.36 1025.44 1025.48 1025.56 1025.64 1025.64 1025.76 1025.92 1026.08 1026.20 1026.32 1026.36 1026.48 1026.60 1026.60 1026.76 1026.80 1026.84 1026.92 1027.04
1021.68 1021.88 1022.04 1022.24 1022.52 1022.80 1023.12 1023.40 1023.72 1024.08 1024.32 1024.52 1024.68 1024.92 1024.88 1025.00 1025.12 1025.28 1025.40 1025.40 1025.40 1025.52 1025.64 1025.72 1025.76 1025.80 1025.88 1025.80 1025.88 1026.08 1026.24 1026.32 1026.44 1026.48 1026.52 1026.64 1026.68 1026.80 1026.88 1026.92 1026.96 1027.00
1022.00 1022.20 1022.32 1022.48 1022.68 1023.04 1023.40 1023.68 1024.00 1024.28 1024.48 1024.68 1024.96 1025.16 1025.20 1025.20 1025.36 1025.48 1025.60 1025.60 1025.64 1025.76 1025.84 1025.92 1025.96 1026.00 1026.08 1026.00 1026.08 1026.16 1026.32 1026.48 1026.44 1026.40 1026.44 1026.60 1026.72 1026.84 1026.88 1026.92 1026.96 1027.08
1022.20 1022.44 1022.56 1022.68 1022.92 1023.28 1023.60 1023.96 1024.24 1024.52 1024.68 1024.88 1025.16 1025.32 1025.36 1025.48 1025.56 1025.68 1025.76 1025.80 1025.84 1025.96 1026.04 1026.08 1026.12 1026.20 1026.24 1026.28 1026.28 1026.28 1026.36 1026.52 1026.52 1026.44 1026.44 1026.56 1026.72 1026.88 1026.88 1026.88 1026.96 1027.12
1022.16 1022.40 1022.52 1022.76 1023.08 1023.40 1023.76 1024.08 1024.44 1024.76 1024.92 1025.12 1025.32 1025.52 1025.60 1025.64 1025.84 1025.96 1026.00 1026.04 1026.08 1026.16 1026.24 1026.28 1026.36 1026.36 1026.28 1026.40 1026.48 1026.48 1026.44 1026.52 1026.60 1026.56 1026.52 1026.60 1026.72 1026.80 1026.76 1026.84 1027.00 1027.08
1022.16 1022.40 1022.64 1022.88 1023.20 1023.52 1023.84 1024.20 1024.52 1024.84 1025.16 1025.40 1025.44 1025.64 1025.84 1025.88 1025.96 1026.12 1026.24 1026.32 1026.36 1026.40 1026.44 1026.52 1026.60 1026.60 1026.52 1026.56 1026.60 1026.56 1026.56 1026.64 1026.68 1026.72 1026.68 1026.68 1026.76 1026.84 1026.80 1026.88 1027.04 1027.20
1022.16 1022.40 1022.64 1022.92 1023.32 1023.64 1023.96 1024.32 1024.64 1024.96 1025.20 1025.56 1025.72 1025.72 1025.88 1026.00 1026.16 1026.28 1026.40 1026.44 1026.48 1026.48 1026.52 1026.60 1026.68 1026.72 1026.68 1026.64 1026.68 1026.76 1026.68 1026.64 1026.68 1026.72 1026.80 1026.84 1026.80 1026.80 1026.84 1027.20 1027.28 1027.24
1022.00 1022.28 1022.56 1022.96 1023.44 1023.80 1024.12 1024.44 1024.76 1025.08 1025.36 1025.64 1025.80 1025.92 1026.00 1026.08 1026.20 1026.36 1026.52 1026.52 1026.56 1026.52 1026.64 1026.72 1026.76 1026.76 1026.80 1026.80 1026.76 1026.76 1026.72 1026.76 1026.72 1026.68 1026.80 1026.88 1026.92 1026.92 1027.24 1027.36 1027.32 1027.20
1022.00 1022.24 1022.48 1022.88 1023.52 1023.96 1024.32 1024.64 1024.92 1025.20 1025.44 1025.68 1025.84 1026.00 1026.16 1026.24 1026.32 1026.44 1026.52 1026.60 1026.64 1026.60 1026.64 1026.76 1026.76 1026.92 1027.00 1026.96 1026.68 1026.60 1026.76 1026.76 1026.84 1026.80 1026.80 1026.84 1026.96 1027.20 1027.36 1027.36 1027.28 1027.16
1022.20 1022.40 1022.48 1022.92 1023.56 1024.04 1024.48 1024.76 1025.00 1025.28 1025.48 1025.72 1025.96 1026.12 1026.28 1026.32 1026.40 1026.56 1026.60 1026.60 1026.52 1026.60 1026.64 1026.72 1026.92 1027.08 1027.12 1027.04 1026.88 1026.76 1026.76 1026.88 1026.84 1026.88 1026.92 1027.12 1027.20 1027.44 1027.36 1027.32 1027.20 1027.16
1022.12 1022.52 1022.64 1022.96 1023.52 1024.08 1024.52 1024.84 1025.08 1025.32 1025.60 1025.88 1026.12 1026.28 1026.36 1026.36 1026.48 1026.60 1026.68 1026.68 1026.56 1026.52 1026.56 1026.80 1027.00 1027.12 1027.12 1027.04 1026.96 1026.96 1026.88 1026.92 1026.88 1026.96 1027.04 1027.08 1027.08 1027.28 1027.36 1027.28 1027.20 1027.20
1021.88 1022.40 1022.76 1023.12 1023.60 1024.08 1024.48 1024.84 1025.12 1025.44 1025.76 1025.96 1026.20 1026.36 1026.44 1026.48 1026.56 1026.72 1026.80 1026.76 1026.76 1026.72 1026.72 1026.88 1027.08 1027.24 1027.16 1027.04 1027.00 1027.04 1027.08 1027.16 1027.20 1027.16 1027.24 1027.20 1027.28 1027.28 1027.20 1027.28 1027.16 1027.08
1021.88 1022.20 1022.68 1023.16 1023.56 1024.00 1024.44 1024.84 1025.20 1025.52 1025.80 1026.00 1026.20 1026.36 1026.44 1026.48 1026.68 1026.76 1026.84 1026.88 1026.72 1026.64 1026.84 1027.04 1027.16 1027.36 1027.32 1027.24 1027.16 1027.16 1027.24 1027.28 1027.36 1027.44 1027.36 1027.36 1027.44 1027.32 1027.12 1027.16 1027.12 1027.08
1021.80 1022.16 1022.64 1023.16 1023.60 1023.96 1024.40 1024.84 1025.20 1025.48 1025.76 1026.00 1026.24 1026.40 1026.44 1026.64 1026.76 1026.80 1026.88 1026.84 1026.84 1026.84 1027.00 1027.16 1027.28 1027.48 1027.52 1027.36 1027.28 1027.28 1027.32 1027.36 1027.52 1027.48 1027.48 1027.52 1027.48 1027.36 1027.28 1027.20 1027.16 1027.20
1021.80 1022.20 1022.68 1023.24 1023.60 1023.92 1024.32 1024.76 1025.12 1025.52 1025.84 1026.04 1026.16 1026.28 1026.36 1026.44 1026.60 1026.72 1026.84 1026.88 1026.96 1027.04 1027.04 1027.24 1027.44 1027.60 1027.56 1027.44 1027.44 1027.44 1027.44 1027.52 1027.64 1027.64 1027.60 1027.56 1027.56 1027.48 1027.40 1027.40 1027.44 1027.48
1021.68 1022.16 1022.68 1023.20 1023.60 1023.88 1024.24 1024.76 1025.16 1025.44 1025.76 1026.04 1026.16 1026.40 1026.56 1026.64 1026.76 1026.76 1026.80 1026.96 1027.12 1027.12 1027.08 1027.28 1027.48 1027.60 1027.56 1027.52 1027.48 1027.44 1027.48 1027.60 1027.68 1027.68 1027.64 1027.60 1027.56 1027.56 1027.48 1027.48 1027.48 1027.36
1021.68 1022.12 1022.60 1023.08 1023.48 1023.80 1024.20 1024.64 1025.12 1025.52 1025.80 1026.00 1026.20 1026.40 1026.48 1026.52 1026.56 1026.68 1026.92 1027.00 1027.08 1027.12 1027.16 1027.32 1027.44 1027.56 1027.56 1027.52 1027.48 1027.48 1027.52 1027.68 1027.76 1027.76 1027.72 1027.64 1027.64 1027.68 1027.64 1027.56 1027.48 1027.40
1021.56 1022.00 1022.44 1022.92 1023.32 1023.68 1024.08 1024.56 1024.96 1025.32 1025.60 1025.84 1026.00 1026.32 1026.40 1026.48 1026.68 1026.92 1027.12 1027.00 1026.92 1027.12 1027.24 1027.28 1027.40 1027.52 1027.56 1027.52 1027.48 1027.52 1027.64 1027.68 1027.84 1027.76 1027.72 1027.72 1027.60 1027.64 1027.72 1027.48 1027.28 1027.36
1021.52 1021.88 1022.32 1022.76 1023.12 1023.56 1023.92 1024.40 1024.80 1025.12 1025.48 1025.80 1025.96 1026.12 1026.24 1026.56 1026.80 1026.88 1027.16 1027.24 1027.16 1027.16 1027.36 1027.40 1027.48 1027.52 1027.56 1027.56 1027.52 1027.60 1027.72 1027.84 1027.88 1027.80 1027.64 1027.72 1027.68 1027.32 1027.36 1027.24 1027.20 1027.28
1021.44 1021.76 1022.16 1022.56 1022.96 1023.56 1024.00 1024.32 1024.76 1025.16 1025.48 1025.76 1026.04 1026.12 1026.32 1026.56 1026.76 1026.88 1026.80 1027.04 1027.32 1027.36 1027.36 1027.40 1027.48 1027.52 1027.60 1027.60 1027.60 1027.64 1027.76 1027.88 1027.96 1027.64 1027.60 1027.64 1027.68 1027.56 1027.24 1027.08 1027.24 1027.20
Wind_Speed
7 7 7 7 7 7 7 7 5 6 5 5 6 5 6 3 4 6 5 6 6 6 6 6 6 6 6 6 7 8 8 9 8 8 9 9 8 9 9 9 7 6
7 7 7 7 7 6 5 6 6 7 6 5 5 5 4 5 4 5 6 6 6 6 6 6 6 6 6 6 7 8 8 8 9 6 9 10 8 9 9 7 6 4
7 8 9 9 8 7 7 6 6 6 7 6 5 5 5 4 6 5 6 6 6 6 6 5 6 5 6 6 7 8 8 9 9 7 8 8 7 8 6 6 5 5
7 8 8 8 8 8 7 7 6 6 6 6 5 5 5 5 6 6 6 6 6 6 5 6 6 5 5 6 8 8 8 8 7 7 7 6 6 6 5 5 5 5
8 7 7 7 7 8 7 8 8 7 7 6 6 5 6 6 6 6 6 6 6 6 6 6 6 6 5 6 7 8 7 7 6 7 7 6 4 5 4 5 5 5
6 7 7 8 8 8 7 8 8 9 8 6 6 5 6 6 6 6 5 6 5 6 6 6 6 5 6 6 7 7 7 7 6 7 7 6 4 4 4 5 5 4
7 7 8 7 8 7 8 7 8 8 7 6 6 6 6 6 6 5 5 5 6 6 6 5 5 6 5 6 7 7 7 7 6 7 7 5 5 4 4 4 4 4
7 6 7 7 8 7 8 8 8 8 6 6 7 4 5 6 6 4 4 5 6 6 6 5 5 5 4 6 7 7 5 5 6 6 6 5 4 4 4 3 3 4
6 6 7 8 9 7 8 8 8 7 6 8 7 5 4 5 5 5 5 5 6 5 5 5 5 5 4 6 6 6 6 4 5 6 6 5 5 4 4 3 3 3
7 7 8 8 8 7 9 7 7 6 6 8 6 5 7 5 5 5 4 5 6 5 5 5 5 5 5 5 5 5 5 5 4 5 4 5 5 4 4 3 4 3
9 7 8 8 8 8 9 8 8 7 6 7 7 6 5 6 5 4 4 5 6 5 5 5 4 4 5 5 4 4 4 4 4 4 4 4 4 4 4 4 3 3
8 8 8 8 8 8 9 8 8 7 7 5 6 8 5 5 5 4 4 5 5 5 5 5 4 4 4 4 4 4 4 3 3 3 3 3 3 3 3 3 3 3
9 8 8 8 8 8 8 8 8 8 7 6 5 7 6 6 5 5 4 5 4 5 5 5 4 4 4 3 4 4 4 4 3 3 2 1 2 3 3 2 2 3
9 9 8 8 8 8 8 8 8 7 7 6 6 7 6 5 5 5 4 4 4 5 4 4 4 4 4 3 3 3 4 3 2 4 3 1 1 1 2 2 3 3
8 8 8 9 8 8 8 8 8 7 7 6 6 6 5 5 5 4 5 5 5 5 5 4 5 4 3 2 3 3 3 4 3 1 2 3 2 0 1 2 2 3
8 8 9 10 9 9 8 8 8 7 7 7 6 6 5 5 5 4 4 5 5 5 5 5 5 3 4 5 4 3 4 4 4 3 2 1 1 0 0 1 3 3
9 8 9 10 9 9 8 8 8 7 7 7 6 5 5 4 4 5 4 4 5 5 6 5 4 3 5 5 6 6 5 5 4 3 3 2 0 1 1 1 3 4
9 9 9 9 10 9 9 8 8 8 7 7 6 5 4 5 5 4 4 4 4 5 5 5 4 5 6 7 8 9 7 5 4 3 3 2 2 1 3 3 3 3
10 11 10 10 10 10 9 8 9 8 8 7 6 5 4 5 4 4 4 3 5 6 5 4 4 6 6 7 8 8 7 5 3 3 3 2 2 0 3 4 3 3
10 10 10 10 10 10 10 9 9 9 7 6 6 5 5 5 4 4 4 4 4 5 4 4 4 5 5 7 8 8 8 6 3 3 3 2 2 1 1 2 2 2
10 10 10 10 10 10 10 9 9 8 7 6 7 7 7 6 6 5 4 4 4 4 5 4 3 4 5 7 7 7 7 5 3 3 3 3 2 2 2 1 2 2
11 10 10 9 9 10 11 10 9 9 9 6 6 5 4 4 4 4 4 4 3 4 5 4 3 3 4 6 6 6 6 4 3 3 3 3 3 3 3 2 2 2
10 11 11 10 10 11 11 10 10 8 7 6 7 6 6 5 5 4 3 4 4 4 5 4 2 2 4 5 5 5 5 4 3 3 3 3 2 3 3 3 3 3
11 11 11 10 10 11 11 9 8 7 7 6 8 7 6 5 4 4 3 3 4 4 3 4 2 1 2 4 4 5 4 3 2 3 3 3 3 2 2 3 4 7
10 11 10 10 10 10 10 10 9 9 7 6 6 6 6 5 4 5 3 2 2 3 5 4 3 1 1 2 3 3 2 2 2 3 4 3 3 4 3 4 5 5
10 11 10 11 10 9 8 9 7 7 7 6 5 6 6 5 4 5 5 4 2 2 3 3 3 1 1 2 2 1 2 2 1 3 2 2 3 3 5 6 5 6
Wind_Direction
122 122 121 121 127 132 135 135 137 130 123 114 108 98 89 83 72 74 74 71 71 69 65 69 74 78 80 79 83 84 85 88 83 83 82 81 78 80 78 76 72 76
124 121 122 120 118 121 124 130 134 126 115 107 104 99 87 84 66 81 79 76 68 66 67 68 71 80 83 85 86 87 86 84 84 81 86 82 82 81 81 79 79 72
124 123 128 131 131 130 127 121 118 115 110 109 102 97 96 89 87 77 79 79 75 67 64 67 68 69 81 86 83 86 91 91 88 83 84 85 85 85 86 84 74 67
123 128 129 128 128 129 128 122 115 106 106 101 101 104 99 95 89 81 73 74 77 71 67 64 67 66 73 79 85 85 90 91 98 94 88 84 84 92 90 85 76 63
126 123 124 124 125 128 129 125 117 110 105 111 105 100 98 94 88 83 81 72 75 74 67 66 63 63 69 73 87 97 96 98 97 97 96 91 91 95 90 84 77 67
115 124 129 130 132 132 128 122 119 115 115 106 109 101 95 93 88 88 85 83 74 77 73 67 67 60 67 80 88 98 106 102 102 102 97 98 89 80 90 86 82 75
126 127 127 126 125 126 120 117 113 109 108 114 102 95 102 91 90 87 85 88 82 76 76 72 73 67 62 83 90 98 102 108 109 104 105 103 96 81 80 88 90 89
123 125 126 124 120 119 114 113 112 111 115 104 95 90 95 97 91 87 87 91 88 82 79 77 75 74 71 82 95 101 103 115 113 110 106 104 98 97 88 91 103 94
116 120 124 122 118 112 109 112 111 112 112 105 102 96 82 89 94 91 90 91 89 84 84 78 74 77 69 83 90 104 111 116 123 120 120 118 117 125 124 118 92 90
119 125 122 122 116 114 113 113 111 108 109 104 104 101 96 82 81 88 89 90 91 84 79 80 74 73 72 70 84 101 112 122 128 126 127 133 137 144 144 133 131 106
136 136 131 125 118 116 116 116 114 111 107 110 107 98 97 97 84 80 86 83 85 87 84 75 71 72 77 73 70 83 102 114 128 131 135 142 150 160 163 147 135 136
139 133 130 126 121 119 122 121 118 115 110 105 114 111 102 91 96 84 88 88 85 83 81 78 71 71 76 79 76 77 81 85 97 126 144 151 153 167 163 152 135 161
139 138 135 127 121 122 122 121 119 118 115 115 115 113 111 104 90 91 81 89 86 81 74 77 74 67 68 66 72 77 86 90 104 122 144 148 178 176 165 113 143 186
145 140 134 123 119 123 125 123 120 116 114 116 114 107 106 104 100 95 87 83 81 78 73 74 73 64 55 52 54 67 86 84 102 149 160 187 227 214 87 130 188 223
140 136 133 121 123 124 125 123 120 118 116 115 110 106 102 101 99 97 97 85 74 76 71 64 66 54 48 47 64 56 74 85 67 83 170 191 217 4 100 157 218 242
141 141 135 124 128 129 128 125 121 119 115 110 106 106 108 105 96 92 90 95 89 75 70 64 56 44 32 37 66 91 76 83 80 72 83 101 322 36 2 148 228 251
139 138 133 130 131 126 126 125 122 119 114 111 111 114 113 109 101 95 88 87 90 88 75 66 54 42 32 66 77 84 85 79 84 68 51 60 28 135 201 199 240 264
138 138 134 129 130 132 132 129 123 119 118 120 120 120 114 104 100 100 99 95 91 82 76 70 61 38 51 70 74 72 79 86 85 75 57 27 10 155 180 188 237 277
141 141 140 139 139 136 134 131 126 122 124 127 129 132 117 109 116 106 100 97 92 87 76 64 65 46 66 79 79 75 75 81 71 81 80 40 0 206 171 185 231 283
145 142 140 140 139 137 136 134 131 133 134 133 127 119 117 115 109 110 109 94 96 94 88 73 65 52 76 84 80 73 66 66 55 54 61 50 27 31 152 211 232 265
146 143 139 140 142 140 139 138 136 133 136 142 139 140 136 135 131 119 111 101 93 92 89 72 58 66 88 89 87 82 74 69 46 41 38 34 18 33 49 16 301 277
148 146 143 142 143 144 143 143 143 147 148 152 138 128 116 109 103 106 110 110 101 95 93 83 61 71 90 85 81 75 70 57 53 46 33 19 13 7 2 346 313 307
149 148 149 148 149 148 149 149 150 150 151 148 133 140 139 139 146 136 139 130 123 114 111 112 102 96 98 96 90 88 71 53 51 50 38 19 349 330 326 309 310 311
154 154 154 153 153 154 153 154 154 151 156 158 146 150 151 159 145 129 146 145 136 144 147 136 161 170 92 80 81 79 90 97 80 78 40 18 339 321 306 307 315 323
155 156 157 157 157 155 154 154 159 160 159 150 150 149 156 150 145 143 154 162 159 156 171 155 181 209 64 55 72 92 105 110 104 85 55 7 354 338 332 349 329 316
162 159 158 159 157 150 150 151 146 141 149 151 154 150 149 158 156 158 164 185 184 203 192 163 181 234 326 325 356 17 137 126 131 79 43 356 351 359 353 334 323 317